Location: Brienzwiler
(46.7508°N, 8.1014°E)
Time: 01:16:04
(UTC+00:00)

Cosmos 2369 Rocket - Pass Details

Date: 05 July 2020
Orbit: 829 x 852 km, 71.0° (Epoch: 11 August)

Event Time Altitude Azimuth Distance (km) Brightness Sun altitude
Rises 23:37:32 0° 334° (NNW) 3,383 6.4 -20.6°
Reaches altitude 10° 23:40:00 10° 337° (NNW) 2,446 5.5 -20.6°
Maximum altitude 23:45:35 70° 61° (ENE) 885 2.3 -20.5°
Enters shadow 23:48:31 29° 139° (SE) 1,488 3.1 -20.5°
